Other Surface Observations
Issued by NWS Charleston, SC

Home | Current Version | Previous Version | Text Only | Print | Product List | Glossary On
Versions: 1 2 3 4 5 6 7 8 9 10 11 12 13 14 15 16 17 18 19 20 21 22 23 24 25 26 27 28 29 30 31 32 33 34 35 36 37 38 39 40 41 42 43 44 45 46 47 48 49 50
000
SXUS52 KCHS 241727
OSOCHS

MARINE OBSERVATIONS
NATIONAL WEATHER SERVICE CHARLESTON SC
100 PM EDT SUN MAY 24 2015

...DOWNTOWN CHARLESTON AND HARBOR...

CITY           SKY/WX    TMP DP  RH WIND       PRES   REMARKS
WATERFRONT PRK   N/A     76  62  61 E15       30.34F
FORT JOHNSON   NOT AVBL

...LAKE MOULTRIE...

CITY           SKY/WX    TMP DP  RH WIND       PRES   REMARKS
PINOPOLIS        N/A     82  57  42 E6        30.29F

...LAKE AND SUPPLEMENTAL COASTAL OBSERVATIONS...

STATION/POSITION TIME  TEMP    WIND        PRES    WAVE   SWELL
                       AIR SEA DIR/SP/G            HT/PER HT/PER/DIR
                 (UTC) (F)     (DEG/KT/KT) (MB)    (FT/S) (FT/S/D)
FORT PULASKI     1700   76 77   70/ 15/ 19 1027.8F
SAPELO ISLAND    1700   80      70/ 13     1027.0S
UPR LAKE MARION  NOT AVBL
WINYAH BAY       1645   75     100/ 12     1028.0S
LAKE MURRAY      1700   77     130/  7/ 10 1027.4F
ACE BASIN NERRS  1630   80                   N/A


...C-MAN AND BUOY OBSERVATIONS...

STATION/POSITION TIME  TEMP    WIND        PRES    WAVE   SWELL
                       AIR SEA DIR/SP/G            HT/PER HT/PER/DIR
                 (UTC) (F)     (DEG/KT/KT) (MB)    (FT/S) (FT/S/D)
BUOY 41004       1650   75 75   80/ 16/ 17 1027.4F   5/ 7   3/ 7
BUOY 41008       1650   75 75   80/ 10/ 12 1026.5F   4/ 8   3/100/ 8
FOLLY BEACH CMAN 1700   76      80/ 14/ 17 1028.1F
CAPERS NS BUOY   1608   75      90/ 14/ 17 1028.6F
FRIPP NS BUOY    1600   76      90/ 14/ 16 1026.9F
5E ST. MARYS GA  1621      78                N/A     4/ 8


STATION/POSITION TIME  TEMP    WIND        PRES    WAVE   SWELL
                       AIR SEA DIR/SP/G            HT/PER HT/PER/DIR
                 (UTC) (F)     (DEG/KT/KT) (MB)    (FT/S) (FT/S/D)
FRYING PAN BUOY  1650   76 73  110/ 12/ 14 1029.8S   4/ 6   2/100/ 6
BUOY 41025       1650   73 78   50/  4/  8 1030.0F   2/ 7   2/ 40/ 7
CAPE LOOKOUT NC  1700   74      70/  6/  8 1029.4F
BUOY 41002       1650   72 74   60/ 17/ 21 1028.2F   6/ 7
BUOY 41010       1620   79 80   90/ 12/ 14 1024.3F
ST AUGUSTINE FL  1700   77 77   50/  9/ 10 1025.8S

$$



USA.gov is the U.S. government's official web portal to all federal, state and local government web resources and services.